SWQ3653 MGGT-MPTO

Flight info

Callsign SWQ3653
Flight time 1h 53m
Altitude 35000
Route VILDA2 LAGOX DCT CAT DCT MGA DCT PADUR DCT BITOR VUMAN2C
Aircraft B738/M-SDE2E3FGHIRWXY/LB1

Departure

Time 2026-05-05 19:42
Airport La Aurora International Airport (MGGT)

Arrival

Time 2026-05-05 21:36
Airport Tocumen International Airport (MPTO)
Time Latitude Longitude Altitude Speed Heading
2026-05-05 19:14 14.58524 -90.52869 4919 ft 0 kts 287°
2026-05-05 19:29 14.58520 -90.52857 4919 ft 4 kts 307°
2026-05-05 19:30 14.58504 -90.52849 4919 ft 4 kts 24°
2026-05-05 19:30 14.58494 -90.52856 4919 ft 1 kts 50°
2026-05-05 19:37 14.58501 -90.52842 4919 ft 5 kts 71°
2026-05-05 19:37 14.58498 -90.52800 4918 ft 7 kts 96°
2026-05-05 19:37 14.58518 -90.52755 4920 ft 7 kts 27°
2026-05-05 19:38 14.58564 -90.52738 4920 ft 7 kts 20°
2026-05-05 19:38 14.58610 -90.52726 4921 ft 7 kts 13°
2026-05-05 19:38 14.58656 -90.52712 4926 ft 7 kts 18°
2026-05-05 19:38 14.58700 -90.52698 4926 ft 7 kts 18°
2026-05-05 19:39 14.58743 -90.52684 4927 ft 6 kts 17°
2026-05-05 19:39 14.58786 -90.52670 4928 ft 6 kts 17°
2026-05-05 19:39 14.58827 -90.52657 4930 ft 6 kts 17°
2026-05-05 19:39 14.58868 -90.52644 4931 ft 6 kts 17°
2026-05-05 19:40 14.58935 -90.52623 4933 ft 14 kts 17°
2026-05-05 19:40 14.59054 -90.52585 4940 ft 21 kts 17°
2026-05-05 19:40 14.59192 -90.52539 4943 ft 20 kts 17°
2026-05-05 19:40 14.59325 -90.52496 4951 ft 20 kts 17°
2026-05-05 19:41 14.59455 -90.52454 4954 ft 19 kts 17°
2026-05-05 19:41 14.59575 -90.52407 4958 ft 17 kts 50°
2026-05-05 19:41 14.59550 -90.52360 4954 ft 9 kts 177°
2026-05-05 19:41 14.59383 -90.52409 4952 ft 58 kts 197°
2026-05-05 19:42 14.58752 -90.52612 4927 ft 129 kts 198°
2026-05-05 19:42 14.57699 -90.52946 4918 ft 187 kts 198°
2026-05-05 19:42 14.56366 -90.53392 5307 ft 211 kts 197°
2026-05-05 19:42 14.54903 -90.53609 5699 ft 216 kts 157°
2026-05-05 19:43 14.53992 -90.52525 6386 ft 200 kts 108°
2026-05-05 19:43 14.53419 -90.51263 6901 ft 201 kts 135°
2026-05-05 19:43 14.52118 -90.50610 7050 ft 215 kts 170°
2026-05-05 19:43 14.50589 -90.50407 7231 ft 233 kts 172°
2026-05-05 19:44 14.48989 -90.50205 7374 ft 250 kts 173°
2026-05-05 19:44 14.47201 -90.49983 7510 ft 271 kts 173°
2026-05-05 19:44 14.45267 -90.49742 7830 ft 283 kts 173°
2026-05-05 19:44 14.43312 -90.49499 8378 ft 288 kts 173°
2026-05-05 19:45 14.41297 -90.49250 8999 ft 291 kts 172°
2026-05-05 19:45 14.39279 -90.48997 9578 ft 295 kts 172°
2026-05-05 19:45 14.37232 -90.48739 10186 ft 298 kts 172°
2026-05-05 19:45 14.35111 -90.48472 10398 ft 317 kts 172°
2026-05-05 19:46 14.32864 -90.48191 10624 ft 333 kts 172°
2026-05-05 19:46 14.30535 -90.47901 11127 ft 339 kts 172°
2026-05-05 19:46 14.28202 -90.47613 11769 ft 344 kts 172°
2026-05-05 19:46 14.25839 -90.47321 12550 ft 343 kts 171°
2026-05-05 19:47 14.23437 -90.47024 13126 ft 348 kts 171°
2026-05-05 19:47 14.21034 -90.46723 13693 ft 352 kts 171°
2026-05-05 19:47 14.18581 -90.46416 14310 ft 355 kts 171°
2026-05-05 19:47 14.16106 -90.46106 14904 ft 359 kts 171°
2026-05-05 19:48 14.13725 -90.45477 15448 ft 359 kts 149°
2026-05-05 19:48 14.11753 -90.43955 16280 ft 350 kts 131°
2026-05-05 19:48 14.10374 -90.41884 16707 ft 353 kts 116°
2026-05-05 19:48 14.09217 -90.39624 17292 ft 356 kts 115°
2026-05-05 19:49 14.08105 -90.37334 17862 ft 359 kts 114°
2026-05-05 19:49 14.07362 -90.35798 18225 ft 361 kts 114°
2026-05-05 19:49 14.05860 -90.32719 18928 ft 365 kts 114°
2026-05-05 19:49 14.04710 -90.30379 19469 ft 367 kts 114°
2026-05-05 19:50 14.03544 -90.28020 20002 ft 369 kts 114°
2026-05-05 19:50 14.02365 -90.25647 20478 ft 372 kts 114°
2026-05-05 19:50 14.01193 -90.23295 20917 ft 375 kts 114°
2026-05-05 19:50 13.99997 -90.20897 21374 ft 377 kts 114°
2026-05-05 19:51 13.98794 -90.18490 21849 ft 380 kts 114°
2026-05-05 19:51 13.97582 -90.16067 22271 ft 382 kts 114°
2026-05-05 19:51 13.96361 -90.13627 22706 ft 384 kts 114°
2026-05-05 19:51 13.95132 -90.11174 23130 ft 386 kts 114°
2026-05-05 19:52 13.93894 -90.08703 23523 ft 389 kts 114°
2026-05-05 19:52 13.92653 -90.06225 23931 ft 391 kts 114°
2026-05-05 19:52 13.91401 -90.03724 24354 ft 393 kts 114°
2026-05-05 19:52 13.90147 -90.01221 24737 ft 395 kts 114°
2026-05-05 19:53 13.88888 -89.98711 24958 ft 401 kts 114°
2026-05-05 19:53 13.87603 -89.96147 25264 ft 403 kts 114°
2026-05-05 19:53 13.86322 -89.93595 25648 ft 404 kts 114°
2026-05-05 19:53 13.85017 -89.90994 25982 ft 406 kts 114°
2026-05-05 19:54 13.83719 -89.88410 26255 ft 410 kts 115°
2026-05-05 19:54 13.82405 -89.85790 26543 ft 412 kts 115°
2026-05-05 19:54 13.81089 -89.83167 26833 ft 415 kts 115°
2026-05-05 19:54 13.79752 -89.80508 27132 ft 418 kts 115°
2026-05-05 19:55 13.78410 -89.77840 27451 ft 420 kts 115°
2026-05-05 19:55 13.77064 -89.75164 27730 ft 423 kts 115°
2026-05-05 19:55 13.75704 -89.72463 28016 ft 426 kts 115°
2026-05-05 19:55 13.74355 -89.69783 28294 ft 428 kts 115°
2026-05-05 19:56 13.72983 -89.67057 28539 ft 431 kts 115°
2026-05-05 19:56 13.71600 -89.64311 28810 ft 433 kts 116°
2026-05-05 19:56 13.70207 -89.61545 29068 ft 435 kts 116°
2026-05-05 19:56 13.68807 -89.58769 29304 ft 438 kts 116°
2026-05-05 19:57 13.67400 -89.55977 29533 ft 441 kts 116°
2026-05-05 19:57 13.66466 -89.54123 29730 ft 441 kts 116°
2026-05-05 19:57 13.64580 -89.50383 30214 ft 440 kts 116°
2026-05-05 19:57 13.63185 -89.47620 30576 ft 439 kts 116°
2026-05-05 19:58 13.61779 -89.44833 30889 ft 439 kts 116°
2026-05-05 19:58 13.60366 -89.42034 31189 ft 440 kts 116°
2026-05-05 19:58 13.58968 -89.39266 31542 ft 439 kts 116°
2026-05-05 19:58 13.57558 -89.36475 31906 ft 438 kts 117°
2026-05-05 19:59 13.56625 -89.34629 32127 ft 438 kts 117°
2026-05-05 19:59 13.55217 -89.31843 32418 ft 438 kts 117°
2026-05-05 19:59 13.53802 -89.29044 32703 ft 438 kts 117°
2026-05-05 19:59 13.52394 -89.26260 33010 ft 438 kts 117°
2026-05-05 20:00 13.50990 -89.23486 33321 ft 437 kts 117°
2026-05-05 20:00 13.49608 -89.20755 33585 ft 436 kts 117°
2026-05-05 20:00 13.48203 -89.17978 33829 ft 437 kts 117°
2026-05-05 20:00 13.46797 -89.15204 34106 ft 437 kts 117°
2026-05-05 20:01 13.45397 -89.12438 34410 ft 436 kts 117°
2026-05-05 20:01 13.43993 -89.09668 34616 ft 437 kts 118°
2026-05-05 20:01 13.42630 -89.06917 34809 ft 437 kts 116°
2026-05-05 20:02 13.40079 -89.01192 34863 ft 440 kts 114°
2026-05-05 20:02 13.37625 -88.95454 34848 ft 436 kts 114°
2026-05-05 20:03 13.35188 -88.89802 34854 ft 434 kts 114°
2026-05-05 20:03 13.32728 -88.84158 34850 ft 432 kts 115°
2026-05-05 20:04 13.30257 -88.78518 34849 ft 432 kts 115°
2026-05-05 20:04 13.27788 -88.72892 34848 ft 433 kts 115°
2026-05-05 20:05 13.25302 -88.67224 34832 ft 435 kts 115°
2026-05-05 20:05 13.22823 -88.61577 34811 ft 437 kts 115°
2026-05-05 20:06 13.20315 -88.55867 34811 ft 439 kts 115°
2026-05-05 20:06 13.17792 -88.50128 34801 ft 441 kts 115°
2026-05-05 20:07 13.15265 -88.44382 34794 ft 442 kts 115°
2026-05-05 20:07 13.12737 -88.38640 34780 ft 443 kts 115°
2026-05-05 20:08 13.10194 -88.32869 34778 ft 444 kts 115°
2026-05-05 20:08 13.07647 -88.27092 34775 ft 444 kts 115°
2026-05-05 20:09 13.05114 -88.21350 34757 ft 440 kts 115°
2026-05-05 20:09 13.02600 -88.15655 34762 ft 437 kts 115°
2026-05-05 20:10 13.00107 -88.10013 34766 ft 435 kts 115°
2026-05-05 20:10 12.97607 -88.04357 34775 ft 435 kts 115°
2026-05-05 20:11 12.95096 -87.98684 34790 ft 436 kts 116°
2026-05-05 20:11 12.92592 -87.93032 34790 ft 439 kts 116°
2026-05-05 20:12 12.90053 -87.87303 34798 ft 442 kts 116°
2026-05-05 20:12 12.87513 -87.81571 34807 ft 445 kts 116°
2026-05-05 20:13 12.84930 -87.75747 34820 ft 448 kts 116°
2026-05-05 20:13 12.82355 -87.69946 34812 ft 450 kts 116°
2026-05-05 20:14 12.79764 -87.64117 34830 ft 451 kts 116°
2026-05-05 20:14 12.77151 -87.58237 34813 ft 451 kts 116°
2026-05-05 20:15 12.74560 -87.52412 34830 ft 450 kts 116°
2026-05-05 20:15 12.71982 -87.46621 34833 ft 448 kts 116°
2026-05-05 20:16 12.69401 -87.40828 34836 ft 446 kts 116°
2026-05-05 20:16 12.66824 -87.35044 34838 ft 445 kts 116°
2026-05-05 20:17 12.64255 -87.29286 34836 ft 444 kts 116°
2026-05-05 20:17 12.61697 -87.23558 34833 ft 443 kts 116°
2026-05-05 20:18 12.59130 -87.17813 34832 ft 443 kts 116°
2026-05-05 20:18 12.56573 -87.12093 34831 ft 443 kts 116°
2026-05-05 20:19 12.54023 -87.06391 34838 ft 443 kts 116°
2026-05-05 20:19 12.51447 -87.00636 34831 ft 444 kts 117°
2026-05-05 20:20 12.48879 -86.94906 34833 ft 445 kts 117°
2026-05-05 20:20 12.46291 -86.89131 34837 ft 445 kts 117°
2026-05-05 20:21 12.43707 -86.83367 34827 ft 446 kts 117°
2026-05-05 20:21 12.41120 -86.77605 34845 ft 446 kts 117°
2026-05-05 20:22 12.38519 -86.71815 34839 ft 447 kts 117°
2026-05-05 20:22 12.35933 -86.66063 34846 ft 448 kts 117°
2026-05-05 20:23 12.33316 -86.60241 34840 ft 448 kts 117°
2026-05-05 20:23 12.30729 -86.54492 34843 ft 448 kts 117°
2026-05-05 20:24 12.28116 -86.48690 34841 ft 448 kts 117°
2026-05-05 20:24 12.25503 -86.42892 34841 ft 447 kts 117°
2026-05-05 20:25 12.22895 -86.37105 34841 ft 448 kts 117°
2026-05-05 20:25 12.20299 -86.31351 34828 ft 448 kts 117°
2026-05-05 20:26 12.17677 -86.25543 34835 ft 447 kts 117°
2026-05-05 20:26 12.15086 -86.19805 34832 ft 447 kts 117°
2026-05-05 20:27 12.12231 -86.14181 34841 ft 444 kts 124°
2026-05-05 20:27 12.09010 -86.08810 34832 ft 444 kts 125°
2026-05-05 20:28 12.05738 -86.03429 34834 ft 445 kts 125°
2026-05-05 20:28 12.02495 -85.98032 34834 ft 446 kts 124°
2026-05-05 20:29 11.99279 -85.92635 34840 ft 446 kts 124°
2026-05-05 20:29 11.96055 -85.87214 34843 ft 446 kts 124°
2026-05-05 20:30 11.92845 -85.81818 34852 ft 446 kts 124°
2026-05-05 20:30 11.89607 -85.76381 34849 ft 447 kts 124°
2026-05-05 20:31 11.86394 -85.70989 34858 ft 446 kts 124°
2026-05-05 20:31 11.83157 -85.65560 34864 ft 445 kts 124°
2026-05-05 20:32 11.79943 -85.60173 34861 ft 445 kts 124°
2026-05-05 20:32 11.76729 -85.54792 34858 ft 445 kts 124°
2026-05-05 20:33 11.73520 -85.49418 34869 ft 444 kts 124°
2026-05-05 20:33 11.70303 -85.44032 34868 ft 443 kts 124°
2026-05-05 20:34 11.67099 -85.38676 34868 ft 443 kts 124°
2026-05-05 20:34 11.63880 -85.33296 34871 ft 443 kts 124°
2026-05-05 20:35 11.60682 -85.27956 34877 ft 442 kts 124°
2026-05-05 20:35 11.57482 -85.22610 34882 ft 442 kts 124°
2026-05-05 20:36 11.54274 -85.17255 34881 ft 442 kts 124°
2026-05-05 20:36 11.51051 -85.11879 34880 ft 443 kts 124°
2026-05-05 20:37 11.47849 -85.06542 34879 ft 443 kts 124°
2026-05-05 20:37 11.44617 -85.01158 34881 ft 444 kts 124°
2026-05-05 20:38 11.41392 -84.95787 34885 ft 444 kts 124°
2026-05-05 20:38 11.38183 -84.90445 34884 ft 445 kts 124°
2026-05-05 20:39 11.34949 -84.85065 34881 ft 445 kts 124°
2026-05-05 20:39 11.31707 -84.79674 34877 ft 446 kts 124°
2026-05-05 20:40 11.28461 -84.74280 34888 ft 446 kts 124°
2026-05-05 20:40 11.25218 -84.68894 34890 ft 446 kts 124°
2026-05-05 20:41 11.21970 -84.63502 34885 ft 446 kts 124°
2026-05-05 20:41 11.18742 -84.58147 34887 ft 446 kts 124°
2026-05-05 20:42 11.15495 -84.52760 34899 ft 446 kts 124°
2026-05-05 20:42 11.12258 -84.47393 34895 ft 445 kts 124°
2026-05-05 20:43 11.09022 -84.42033 34894 ft 443 kts 124°
2026-05-05 20:43 11.05802 -84.36701 34906 ft 441 kts 124°
2026-05-05 20:44 11.02585 -84.31377 34906 ft 441 kts 124°
2026-05-05 20:44 10.99371 -84.26064 34908 ft 440 kts 124°
2026-05-05 20:45 10.94577 -84.18136 34926 ft 441 kts 124°
2026-05-05 20:45 10.91891 -84.13697 34961 ft 440 kts 124°
2026-05-05 20:46 10.88684 -84.08403 34939 ft 442 kts 124°
2026-05-05 20:46 10.85448 -84.03065 34945 ft 443 kts 124°
2026-05-05 20:47 10.82206 -83.97722 34940 ft 444 kts 124°
2026-05-05 20:47 10.78960 -83.92368 34946 ft 444 kts 124°
2026-05-05 20:48 10.75736 -83.87051 34951 ft 445 kts 124°
2026-05-05 20:48 10.72453 -83.81642 34948 ft 446 kts 124°
2026-05-05 20:49 10.69209 -83.76302 34947 ft 446 kts 124°
2026-05-05 20:49 10.65942 -83.70927 34949 ft 446 kts 124°
2026-05-05 20:50 10.62683 -83.65570 34944 ft 446 kts 124°
2026-05-05 20:50 10.59422 -83.60206 34947 ft 445 kts 124°
2026-05-05 20:51 10.56183 -83.54879 34947 ft 445 kts 124°
2026-05-05 20:51 10.52933 -83.49544 34935 ft 443 kts 124°
2026-05-05 20:52 10.49690 -83.44223 34933 ft 443 kts 124°
2026-05-05 20:52 10.46451 -83.38908 34933 ft 442 kts 124°
2026-05-05 20:53 10.43217 -83.33600 34926 ft 441 kts 124°
2026-05-05 20:53 10.39987 -83.28307 34922 ft 441 kts 125°
2026-05-05 20:54 10.36751 -83.23006 34917 ft 441 kts 125°
2026-05-05 20:54 10.33539 -83.17745 34919 ft 441 kts 125°
2026-05-05 20:55 10.30302 -83.12448 34913 ft 441 kts 125°
2026-05-05 20:55 10.27063 -83.07148 34904 ft 442 kts 125°
2026-05-05 20:56 10.23819 -83.01844 34911 ft 442 kts 125°
2026-05-05 20:56 10.20569 -82.96531 34901 ft 443 kts 125°
2026-05-05 20:57 10.17316 -82.91216 34897 ft 443 kts 125°
2026-05-05 20:57 10.14064 -82.85906 34898 ft 443 kts 125°
2026-05-05 20:58 10.10810 -82.80592 34896 ft 443 kts 125°
2026-05-05 20:58 10.07560 -82.75291 34900 ft 443 kts 125°
2026-05-05 20:59 10.04322 -82.70010 34900 ft 443 kts 125°
2026-05-05 20:59 10.01065 -82.64698 34896 ft 443 kts 125°
2026-05-05 21:00 9.97831 -82.59373 34892 ft 444 kts 122°
2026-05-05 21:00 9.95169 -82.53694 34899 ft 446 kts 117°
2026-05-05 21:01 9.92704 -82.47930 34891 ft 446 kts 117°
2026-05-05 21:01 9.90211 -82.42162 34889 ft 445 kts 117°
2026-05-05 21:02 9.87684 -82.36422 34880 ft 445 kts 117°
2026-05-05 21:02 9.85148 -82.30703 34879 ft 445 kts 118°
2026-05-05 21:03 9.82626 -82.25025 34878 ft 444 kts 118°
2026-05-05 21:03 9.80088 -82.19312 34869 ft 444 kts 118°
2026-05-05 21:04 9.77550 -82.13603 34870 ft 444 kts 118°
2026-05-05 21:04 9.75015 -82.07902 34869 ft 443 kts 118°
2026-05-05 21:05 9.72476 -82.02196 34864 ft 443 kts 118°
2026-05-05 21:05 9.69939 -81.96493 34861 ft 444 kts 118°
2026-05-05 21:06 9.67402 -81.90795 34861 ft 444 kts 118°
2026-05-05 21:06 9.64863 -81.85093 34860 ft 444 kts 118°
2026-05-05 21:07 9.62336 -81.79427 34853 ft 444 kts 118°
2026-05-05 21:07 9.59790 -81.73722 34853 ft 445 kts 118°
2026-05-05 21:08 9.57236 -81.67997 34851 ft 445 kts 118°
2026-05-05 21:08 9.54685 -81.62279 34853 ft 445 kts 118°
2026-05-05 21:09 9.52143 -81.56588 34852 ft 445 kts 118°
2026-05-05 21:09 9.49585 -81.50865 34842 ft 446 kts 118°
2026-05-05 21:10 9.47023 -81.45135 34843 ft 446 kts 118°
2026-05-05 21:10 9.44462 -81.39409 34841 ft 446 kts 118°
2026-05-05 21:11 9.41904 -81.33694 34624 ft 449 kts 118°
2026-05-05 21:11 9.40603 -81.30794 34054 ft 453 kts 118°
2026-05-05 21:11 9.39302 -81.27889 33441 ft 454 kts 118°
2026-05-05 21:12 9.38008 -81.25003 32795 ft 456 kts 118°
2026-05-05 21:12 9.36695 -81.22072 32113 ft 459 kts 118°
2026-05-05 21:12 9.35374 -81.19123 31530 ft 459 kts 117°
2026-05-05 21:12 9.34059 -81.16187 31004 ft 457 kts 117°
2026-05-05 21:13 9.32750 -81.13265 30477 ft 455 kts 117°
2026-05-05 21:13 9.31445 -81.10353 29954 ft 453 kts 117°
2026-05-05 21:13 9.30145 -81.07454 29429 ft 451 kts 117°
2026-05-05 21:13 9.28850 -81.04568 28887 ft 449 kts 117°
2026-05-05 21:14 9.27560 -81.01695 28336 ft 447 kts 117°
2026-05-05 21:14 9.26312 -80.98823 27858 ft 444 kts 114°
2026-05-05 21:14 9.25248 -80.95920 27521 ft 437 kts 111°
2026-05-05 21:14 9.24282 -80.93011 27020 ft 435 kts 110°
2026-05-05 21:15 9.23379 -80.90206 26506 ft 434 kts 110°
2026-05-05 21:15 9.22451 -80.87329 26309 ft 423 kts 110°
2026-05-05 21:15 9.21537 -80.84540 26231 ft 411 kts 110°
2026-05-05 21:15 9.20636 -80.81830 25975 ft 403 kts 110°
2026-05-05 21:16 9.19734 -80.79149 25531 ft 402 kts 110°
2026-05-05 21:16 9.18827 -80.76470 25055 ft 401 kts 110°
2026-05-05 21:16 9.17921 -80.73804 24628 ft 399 kts 110°
2026-05-05 21:16 9.17022 -80.71158 24241 ft 396 kts 110°
2026-05-05 21:17 9.16131 -80.68536 23835 ft 393 kts 110°
2026-05-05 21:17 9.15245 -80.65928 23432 ft 391 kts 110°
2026-05-05 21:17 9.14364 -80.63332 23069 ft 387 kts 110°
2026-05-05 21:17 9.13491 -80.60765 22713 ft 384 kts 110°
2026-05-05 21:18 9.12624 -80.58215 22339 ft 381 kts 110°
2026-05-05 21:18 9.11774 -80.55716 21961 ft 378 kts 110°
2026-05-05 21:18 9.10923 -80.53213 21595 ft 375 kts 110°
2026-05-05 21:18 9.10077 -80.50724 21227 ft 372 kts 110°
2026-05-05 21:19 9.09240 -80.48259 20868 ft 369 kts 110°
2026-05-05 21:19 9.08407 -80.45811 20516 ft 366 kts 110°
2026-05-05 21:19 9.07579 -80.43382 20143 ft 363 kts 110°
2026-05-05 21:19 9.06759 -80.40975 19799 ft 360 kts 110°
2026-05-05 21:20 9.05991 -80.38592 19641 ft 351 kts 106°
2026-05-05 21:20 9.05455 -80.36212 19452 ft 344 kts 102°
2026-05-05 21:20 9.05030 -80.33850 19000 ft 339 kts 101°
2026-05-05 21:20 9.04633 -80.31503 18407 ft 338 kts 101°
2026-05-05 21:21 9.04233 -80.29170 17877 ft 335 kts 101°
2026-05-05 21:21 9.03833 -80.26894 17376 ft 331 kts 101°
2026-05-05 21:21 9.03421 -80.24610 16844 ft 328 kts 101°
2026-05-05 21:21 9.03007 -80.22350 16304 ft 326 kts 101°
2026-05-05 21:22 9.02590 -80.20106 15784 ft 323 kts 101°
2026-05-05 21:22 9.02174 -80.17880 15273 ft 320 kts 101°
2026-05-05 21:22 9.01761 -80.15681 14754 ft 317 kts 101°
2026-05-05 21:22 9.01352 -80.13503 14228 ft 314 kts 101°
2026-05-05 21:23 9.00944 -80.11337 13694 ft 313 kts 101°
2026-05-05 21:23 9.00538 -80.09184 13210 ft 310 kts 101°
2026-05-05 21:23 9.00136 -80.07050 12710 ft 307 kts 101°
2026-05-05 21:23 8.99743 -80.04965 12212 ft 305 kts 101°
2026-05-05 21:24 8.99347 -80.02867 11707 ft 302 kts 101°
2026-05-05 21:24 8.98955 -80.00790 11202 ft 299 kts 101°
2026-05-05 21:24 8.98564 -79.98721 10658 ft 299 kts 101°
2026-05-05 21:24 8.98177 -79.96670 10187 ft 295 kts 101°
2026-05-05 21:25 8.97797 -79.94658 9858 ft 287 kts 100°
2026-05-05 21:25 8.97426 -79.92690 9494 ft 281 kts 100°
2026-05-05 21:25 8.97062 -79.90769 9158 ft 275 kts 100°
2026-05-05 21:25 8.96707 -79.88889 8824 ft 269 kts 100°
2026-05-05 21:26 8.96358 -79.87047 8507 ft 267 kts 100°
2026-05-05 21:26 8.96005 -79.85197 8192 ft 268 kts 100°
2026-05-05 21:26 8.95657 -79.83330 7871 ft 271 kts 100°
2026-05-05 21:26 8.95301 -79.81466 7513 ft 274 kts 102°
2026-05-05 21:27 8.94779 -79.79610 7192 ft 274 kts 107°
2026-05-05 21:27 8.94156 -79.77790 6845 ft 275 kts 109°
2026-05-05 21:27 8.93522 -79.75961 6496 ft 276 kts 108°
2026-05-05 21:27 8.92897 -79.74116 6162 ft 277 kts 108°
2026-05-05 21:28 8.92284 -79.72274 5819 ft 277 kts 108°
2026-05-05 21:28 8.91673 -79.70422 5480 ft 278 kts 108°
2026-05-05 21:28 8.91067 -79.68574 5134 ft 278 kts 108°
2026-05-05 21:28 8.90459 -79.66717 4797 ft 278 kts 107°
2026-05-05 21:29 8.89864 -79.64867 4659 ft 271 kts 106°
2026-05-05 21:29 8.89293 -79.63064 4267 ft 272 kts 107°
2026-05-05 21:29 8.88715 -79.61269 4029 ft 265 kts 107°
2026-05-05 21:29 8.88425 -79.59469 3773 ft 258 kts 84°
2026-05-05 21:30 8.88640 -79.57719 3697 ft 246 kts 81°
2026-05-05 21:30 8.88876 -79.56039 3586 ft 236 kts 81°
2026-05-05 21:30 8.89027 -79.54965 3516 ft 229 kts 81°
2026-05-05 21:30 8.89241 -79.53407 3413 ft 218 kts 81°
2026-05-05 21:31 8.89501 -79.51465 3333 ft 205 kts 81°
2026-05-05 21:31 8.89691 -79.50043 3231 ft 203 kts 81°
2026-05-05 21:31 8.89940 -79.48647 3037 ft 200 kts 66°
2026-05-05 21:31 8.90790 -79.47623 2926 ft 186 kts 35°
2026-05-05 21:32 8.91833 -79.46877 2724 ft 181 kts 37°
2026-05-05 21:32 8.92513 -79.46378 2609 ft 176 kts 36°
2026-05-05 21:32 8.93524 -79.45722 2538 ft 172 kts 32°
2026-05-05 21:32 8.94591 -79.45093 2320 ft 180 kts 31°
2026-05-05 21:33 8.95649 -79.44491 2106 ft 168 kts 36°
2026-05-05 21:33 8.96622 -79.43896 1859 ft 163 kts 31°
2026-05-05 21:33 8.97591 -79.43363 1682 ft 158 kts 30°
2026-05-05 21:33 8.98544 -79.42822 1452 ft 156 kts 29°
2026-05-05 21:34 8.99487 -79.42282 1263 ft 151 kts 27°
2026-05-05 21:34 9.00388 -79.41767 1038 ft 147 kts 27°
2026-05-05 21:34 9.01283 -79.41254 847 ft 148 kts 27°
2026-05-05 21:34 9.02176 -79.40743 652 ft 147 kts 28°
2026-05-05 21:35 9.03068 -79.40232 453 ft 148 kts 29°
2026-05-05 21:35 9.03964 -79.39718 272 ft 148 kts 30°
2026-05-05 21:35 9.04864 -79.39203 67 ft 147 kts 29°
2026-05-05 21:35 9.05686 -79.38730 44 ft 120 kts 30°
2026-05-05 21:36 9.06266 -79.38406 44 ft 54 kts 20°
2026-05-05 21:36 9.06483 -79.38385 40 ft 21 kts
2026-05-05 21:36 9.06578 -79.38386 41 ft 10 kts 346°
2026-05-05 21:36 9.06614 -79.38398 43 ft 0 kts 335°
2026-05-05 21:37 9.06630 -79.38409 44 ft 4 kts 321°
2026-05-05 21:37 9.06653 -79.38429 45 ft 4 kts 319°
2026-05-05 21:37 9.06679 -79.38444 43 ft 4 kts 348°
2026-05-05 21:38 9.06708 -79.38439 46 ft 4 kts 19°
2026-05-05 21:38 9.06733 -79.38426 43 ft 4 kts 29°
2026-05-05 21:38 9.06766 -79.38408 47 ft 7 kts 28°
2026-05-05 21:38 9.06822 -79.38369 44 ft 14 kts 41°
2026-05-05 21:39 9.06894 -79.38280 45 ft 17 kts 54°
2026-05-05 21:39 9.06969 -79.38197 44 ft 16 kts 34°
2026-05-05 21:39 9.07063 -79.38142 45 ft 15 kts 12°
2026-05-05 21:39 9.07142 -79.38202 48 ft 15 kts 299°
2026-05-05 21:40 9.07189 -79.38290 54 ft 14 kts 298°
2026-05-05 21:40 9.07235 -79.38375 60 ft 13 kts 298°
2026-05-05 21:40 9.07278 -79.38455 65 ft 13 kts 298°
2026-05-05 21:40 9.07337 -79.38516 59 ft 13 kts 358°
2026-05-05 21:41 9.07411 -79.38473 66 ft 12 kts 33°
2026-05-05 21:41 9.07480 -79.38424 66 ft 12 kts 35°
2026-05-05 21:41 9.07553 -79.38384 61 ft 12 kts 27°
2026-05-05 21:41 9.07624 -79.38347 61 ft 11 kts 27°
2026-05-05 21:42 9.07693 -79.38311 65 ft 11 kts 28°
2026-05-05 21:42 9.07758 -79.38273 64 ft 11 kts 31°
2026-05-05 21:42 9.07821 -79.38235 61 ft 10 kts 31°
2026-05-05 21:42 9.07868 -79.38185 68 ft 10 kts 86°
2026-05-05 21:43 9.07830 -79.38126 64 ft 10 kts 129°
2026-05-05 21:43 9.07832 -79.38081 66 ft 4 kts 38°
2026-05-05 21:43 9.07852 -79.38066 66 ft 0 kts 35°
2026-05-05 21:44 9.06827 -79.38475 51 ft 0 kts 258°